{"data":{"norad_id":50817,"epoch":"2026-09-20T00:21:57.916224Z","epoch_age_seconds":90158,"freshness":"FRESH","line1":"1 50817U 22001Q   26263.01525366  .00002873  00000+0  93271-4 0  9998","line2":"2 50817  53.1613   4.3869 0001080  99.9242 260.1883 15.35384114259915","mean_motion":15.35384114,"eccentricity":0.000108,"inclination_deg":53.1613,"raan_deg":4.3869,"arg_perigee_deg":99.9242,"mean_anomaly_deg":260.1883,"bstar":9.3271e-5,"rev_number":25991,"period_min":93.787605776935,"perigee_km":459.04131343015,"apogee_km":460.51830346078,"semimajor_km":6837.9168084455,"source":"CELESTRAK","updated_at":"2026-09-20T09:00:39.577270Z"}}